Location: Newark
(51.0500°N, 12.4500°E)
Time: 00:29:05
(UTC+00:00)

Vanguard 1 - Pass Details

Date: 20 February 2020
Orbit: 649 x 3834 km, 34.2° (Epoch: 01 April)

Event Time Altitude Azimuth Distance (km) Brightness Sun altitude
Rises 05:16:11 0° 191° (S) 7,965 14.6 -9.8°
Reaches altitude 10° 05:24:59 10° 175° (S) 6,806 14.5 -8.5°
Maximum altitude 05:36:22 17° 143° (SE) 5,673 14.6 -6.7°
Drops below altitude 10° 05:45:47 10° 110° (ESE) 5,548 15.7 -5.2°
Sets 05:51:31 0° 93° (E) 5,992 16.4 -4.3°
